[[[{"header":{"parameterUnit":"kt","parameterCategory":2,"dx":1,"dy":1,"la1":30.253999710083008,"la2":30.299108505249023,"lo1":-89.0895004272461,"lo2":-89.04439544677734,"nx":28,"ny":28,"refTime":"2022-10-27T21:00:00:Z","depth":0,"parameterNumber":1,"parameterNumberName":"U-component_of_WINDS"},"data":[-0.8473,-0.8474,-0.8437,-0.842,-0.8383,-0.8365,-0.8347,-0.8319,-0.8286,-0.826,-0.8238,-0.8199,-0.8151,-0.8115,-0.8088,-0.8071,-0.8064,-0.8092,-0.8068,-0.7976,-0.7961,-0.7946,-0.7945,-0.809,-0.8091,-0.817,-0.817,-0.8171,-0.8411,-0.8375,-0.8355,-0.831,-0.8292,-0.8243,-0.8202,-0.8191,-0.8176,-0.8136,-0.8111,-0.8084,-0.8058,-0.7998,-0.7966,-0.7965,-0.794,-0.796,-0.796,-0.7954,-0.7854,-0.7852,-0.7981,-0.7981,-0.7981,-0.798,-0.798,-0.798,-0.8289,-0.829,-0.8241,-0.8218,-0.8185,-0.8155,-0.8149,-0.8102,-0.8081,-0.8043,-0.8,-0.7982,-0.7934,-0.7875,-0.7845,-0.7829,-0.7801,-0.781,-0.7813,-0.7817,-0.7828,-0.7724,-0.7821,-0.7821,-0.782,-0.782,-0.7819,0,-0.8188,-0.8157,-0.8134,-0.8101,-0.8082,-0.8051,-0.8017,-0.8012,-0.7931,-0.7917,-0.7893,-0.7873,-0.7832,-0.7805,-0.7765,-0.7732,-0.7679,-0.7668,-0.7675,-0.7698,-0.7723,-0.7713,-0.7553,-0.7666,-0.7665,-0.7663,-0.7663,-0.7662,-0.8064,-0.8069,-0.7998,-0.7988,-0.7959,-0.7943,-0.7925,-0.7852,-0.7836,-0.7783,-0.7787,-0.7758,-0.7732,-0.7699,-0.7642,-0.7611,-0.7586,-0.7633,-0.7581,-0.7602,-0.7589,-0.7591,-0.7592,-0.7646,-0.7648,-0.765,-0.7651,0,-0.7999,-0.7936,-0.7931,-0.7859,-0.7841,-0.7851,-0.7789,-0.7786,-0.7739,-0.7729,-0.7723,-0.7649,-0.7626,-0.756,-0.752,-0.7487,-0.7502,-0.7476,-0.7519,-0.7511,-0.7549,-0.7548,-0.7679,-0.7693,-0.7538,-0.754,-0.7541,0,-0.787,-0.7879,-0.7785,-0.7785,-0.7792,-0.7719,-0.7728,-0.7689,-0.7645,-0.7636,-0.7565,-0.7558,-0.7475,-0.7458,-0.7409,-0.7408,-0.74,-0.7375,-0.7363,-0.7383,-0.7387,-0.7376,-0.737,-0.733,-0.7329,-0.7328,-0.7328,0,-0.7777,-0.7735,-0.7734,-0.7715,-0.7639,-0.764,-0.7609,-0.7559,-0.7542,-0.7508,-0.7496,-0.7462,-0.7444,-0.7419,-0.7356,-0.7323,-0.7353,-0.7294,-0.7328,-0.733,-0.734,-0.7341,-0.7471,-0.7327,-0.7327,-0.7327,-0.7327,0,-0.7663,-0.7631,-0.764,-0.7575,-0.7567,-0.7566,-0.7528,-0.7512,-0.7465,-0.7434,-0.7406,-0.7351,-0.7344,-0.7291,-0.728,-0.7255,-0.7241,-0.7216,-0.7217,-0.7215,-0.7159,-0.7245,-0.7373,-0.7385,-0.721,-0.7209,-0.7208,0,-0.7575,-0.7566,-0.7503,-0.7512,-0.7499,-0.742,-0.7417,-0.7377,-0.7335,-0.7318,-0.727,-0.7251,-0.7197,-0.7182,-0.7184,-0.7136,-0.7167,-0.7129,-0.7106,-0.7106,-0.7125,-0.7241,-0.7278,-0.7351,-0.7195,-0.7196,-0.7197,0,-0.7499,-0.7406,-0.7412,-0.7387,-0.7322,-0.7309,-0.7306,-0.727,-0.7262,-0.7223,-0.722,-0.7188,-0.7148,-0.7123,-0.7074,-0.708,-0.7144,-0.7035,-0.7033,-0.706,-0.7181,-0.7217,-0.723,-0.7109,-0.7111,-0.7112,-0.7186,0,-0.7348,-0.7334,-0.7346,-0.7292,-0.7272,-0.7273,-0.7203,-0.7191,-0.7146,-0.7102,-0.7094,-0.7042,-0.7005,-0.7,-0.6956,-0.6991,-0.6975,-0.6931,-0.6877,-0.6953,-0.6976,-0.6985,-0.6849,-0.6847,-0.6845,-0.6844,0,0,-0.7281,-0.7259,-0.7189,-0.7183,-0.7162,-0.7081,-0.7088,-0.7058,-0.6999,-0.6986,-0.6955,-0.6904,-0.6864,-0.6861,-0.6879,-0.6863,-0.6863,-0.6839,-0.6917,-0.6925,-0.6933,-0.6959,-0.6969,-0.6841,-0.684,-0.6839,-0.6839,0,-0.7211,-0.7172,-0.7179,-0.7145,-0.7091,-0.7043,-0.7046,-0.6978,-0.695,-0.694,-0.6873,-0.6859,-0.682,-0.6787,-0.6765,-0.6837,-0.6788,-0.683,-0.6894,-0.6902,-0.6913,-0.6922,-0.695,-0.6961,-0.6835,-0.6835,-0.6835,0,-0.7126,-0.7076,-0.7072,-0.7019,-0.6983,-0.6971,-0.6897,-0.6886,-0.6876,-0.6786,-0.6778,-0.674,-0.6689,-0.6694,-0.6694,-0.6665,-0.6724,-0.6691,-0.67,-0.6699,-0.6704,-0.6717,-0.6728,-0.6577,-0.6576,-0.6575,0,0,-0.7076,-0.7062,-0.6986,-0.6999,-0.6981,-0.691,-0.6896,-0.685,-0.6806,-0.6788,-0.6738,-0.6698,-0.6674,-0.666,-0.6634,-0.6649,-0.6633,-0.6663,-0.6675,-0.6685,-0.669,-0.6697,-0.671,-0.6573,-0.6573,-0.6573,0,0,-0.7052,-0.6964,-0.6927,-0.6934,-0.6895,-0.682,-0.6831,-0.6784,-0.6753,-0.6745,-0.6667,-0.6652,-0.6656,-0.662,-0.6598,-0.6614,-0.6561,-0.6565,-0.6637,-0.6651,-0.6663,-0.6673,-0.6515,0,0,0,0,0,-0.6946,-0.6975,-0.6942,-0.6933,-0.6865,-0.6838,-0.6829,-0.6765,-0.673,-0.674,-0.6691,-0.6638,-0.6593,-0.6571,-0.6563,-0.6589,-0.6544,-0.6549,-0.6554,-0.665,-0.6666,-0.6679,0,0,0,0,0,0,-0.6942,-0.6931,-0.6941,-0.6869,-0.6853,-0.6837,-0.6763,-0.6746,-0.6727,-0.6717,-0.6649,-0.6636,-0.6581,-0.6571,-0.6564,-0.6591,-0.6517,-0.6546,-0.655,-0.6554,-0.6656,-0.6669,-0.668,0,0,0,0,0,-0.6938,-0.6929,-0.6837,-0.6868,-0.6855,-0.6777,-0.6761,-0.6747,-0.6731,-0.6654,-0.6639,-0.6684,-0.6583,-0.6573,-0.6567,-0.6595,-0.6521,-0.6519,-0.6549,-0.6552,-0.6555,-0.6662,0,0,0,0,0,0,-0.6935,-0.6915,-0.6833,-0.6826,-0.6853,-0.6776,-0.6762,-0.6748,-0.6667,-0.6653,-0.6685,-0.6679,-0.6585,-0.6577,-0.657,-0.6601,-0.6525,-0.6523,-0.6521,-0.6551,-0.6554,-0.6557,0,0,0,0,0,0,-0.692,-0.691,-0.6829,-0.6813,-0.6804,-0.6776,-0.6764,-0.6748,-0.6668,-0.6703,-0.6695,-0.6683,-0.6596,-0.658,-0.6574,-0.6553,-0.6527,-0.6525,-0.6524,-0.6523,-0.6554,-0.6556,0,0,0,0,0,0,-0.6915,-0.6906,-0.6814,-0.6807,-0.6799,-0.672,-0.6761,-0.6695,-0.6654,-0.6708,-0.6649,-0.6646,-0.66,-0.6593,-0.6578,-0.6559,-0.6554,-0.6527,-0.6526,-0.6525,-0.6524,0,0,0,0,0,0,0,-0.691,-0.698,-0.6872,-0.6803,-0.6795,-0.6765,-0.6763,-0.6761,-0.6654,-0.6652,-0.6649,-0.6647,-0.6539,-0.6537,-0.6535,-0.6564,0,0,-0.6527,-0.6526,0,0,0,0,0,0,0,0,-0.6982,-0.698,-0.6872,-0.687,-0.6869,-0.6765,-0.6763,-0.6762,-0.6654,-0.6652,-0.665,-0.6648,-0.6539,-0.6537,-0.6535,0,0,0,0,0,0,0,0,0,0,0,0,0,0,0,-0.6872,-0.6871,0,-0.6765,-0.6763,-0.6762,-0.6653,-0.6652,-0.665,-0.6649,-0.6538,-0.6537,-0.6535,0,0,0,0,0,0,0,0,0,0,0,0,0,0,0,0,0,0,0,0,0,0,0,0,0,0,0,0,0,0,0,0,0,0,0,0,0,0,0,0,0,0,0,0,0,0,0,0,0,0,0,0,0,0,0,0,0,0,0,0,0,0,0,0,0,0,0,0,0]}],[{"header":{"parameterUnit":"kt","parameterCategory":2,"dx":1,"dy":1,"la1":30.253999710083008,"la2":30.299108505249023,"lo1":-89.0895004272461,"lo2":-89.04439544677734,"nx":28,"ny":28,"refTime":"2022-10-27T21:00:00:Z","depth":0,"parameterNumber":2,"parameterNumberName":"V-component_of_WINDS"},"data":[0.1696,0.1633,0.1591,0.1499,0.1446,0.1375,0.1336,0.1281,0.1226,0.1136,0.1077,0.1026,0.0952,0.087,0.0802,0.078,0.0754,0.0765,0.0737,0.0732,0.0728,0.0725,0.0737,0.076,0.076,0.0747,0.0747,0.0747,0.17,0.1647,0.1586,0.1497,0.1444,0.141,0.1336,0.1294,0.1231,0.1162,0.1101,0.1017,0.0945,0.0865,0.0788,0.0757,0.0734,0.0739,0.0739,0.0728,0.0722,0.0735,0.0758,0.0758,0.0758,0.0758,0.0758,0.0758,0.1696,0.166,0.1581,0.1513,0.1457,0.1398,0.1355,0.1293,0.1232,0.1146,0.1105,0.1033,0.0954,0.0838,0.0787,0.0728,0.0715,0.0705,0.0702,0.07,0.0705,0.0729,0.0713,0.0713,0.0713,0.0712,0.0712,0,0.1679,0.1646,0.1583,0.1508,0.1456,0.1393,0.1328,0.13,0.1211,0.1163,0.1091,0.1041,0.0942,0.0867,0.0784,0.0732,0.0687,0.0678,0.067,0.0689,0.0717,0.0701,0.0692,0.0677,0.0677,0.0677,0.0676,0.0676,0.1671,0.1633,0.1528,0.149,0.1443,0.1382,0.1337,0.1261,0.1216,0.1123,0.1093,0.1018,0.0953,0.0842,0.0766,0.0692,0.0668,0.0668,0.0656,0.0677,0.0667,0.0669,0.0665,0.0671,0.0672,0.0672,0.0673,0,0.167,0.1598,0.1525,0.1423,0.1396,0.136,0.1273,0.1232,0.1175,0.1111,0.1092,0.1001,0.0929,0.0853,0.0755,0.0717,0.0656,0.0636,0.0684,0.0675,0.0666,0.0668,0.0652,0.0645,0.0622,0.0622,0.0622,0,0.1633,0.1586,0.1481,0.1442,0.1387,0.1311,0.1259,0.1203,0.1133,0.1082,0.102,0.0973,0.0882,0.0824,0.0768,0.0704,0.0685,0.0652,0.0637,0.0656,0.0661,0.0628,0.0627,0.0606,0.0606,0.0606,0.0607,0,0.1639,0.1526,0.1463,0.1425,0.131,0.1282,0.1233,0.1153,0.1108,0.1037,0.1007,0.093,0.0887,0.0829,0.0757,0.0752,0.0677,0.0655,0.0643,0.0645,0.0628,0.063,0.0637,0.0607,0.0607,0.0607,0.0607,0,0.1596,0.1528,0.1447,0.135,0.1323,0.1281,0.12,0.1146,0.1066,0.1027,0.0971,0.0919,0.0857,0.0841,0.0754,0.0768,0.073,0.0692,0.0689,0.0677,0.066,0.0673,0.0689,0.0687,0.0669,0.067,0.067,0,0.1623,0.1521,0.1454,0.1378,0.132,0.1253,0.1205,0.1135,0.108,0.1022,0.096,0.0894,0.0866,0.0833,0.0801,0.0734,0.0716,0.0734,0.0649,0.0647,0.0672,0.0686,0.0707,0.0695,0.0676,0.0675,0.0675,0,0.1633,0.1492,0.1484,0.1437,0.1332,0.1282,0.1227,0.1144,0.1109,0.1037,0.0987,0.0892,0.0867,0.0814,0.0762,0.0733,0.0726,0.0708,0.0705,0.0713,0.0672,0.0692,0.0691,0.0698,0.0697,0.0696,0.0679,0,0.1585,0.1523,0.1496,0.1394,0.1344,0.1291,0.1208,0.1166,0.1122,0.1064,0.099,0.0909,0.0823,0.08,0.0755,0.0712,0.0706,0.0679,0.0655,0.0666,0.0658,0.0655,0.0674,0.0673,0.0672,0.0671,0,0,0.1627,0.1537,0.1463,0.1405,0.1358,0.1287,0.1238,0.1183,0.1074,0.1042,0.1029,0.0883,0.0817,0.0735,0.0732,0.0697,0.0681,0.0679,0.0661,0.0661,0.066,0.0653,0.0651,0.0669,0.0669,0.0668,0.0668,0,0.1592,0.1529,0.1482,0.1422,0.133,0.1271,0.126,0.1155,0.1115,0.1041,0.0982,0.0927,0.0811,0.0749,0.0703,0.0688,0.0645,0.0669,0.0689,0.0654,0.0655,0.0655,0.0649,0.0649,0.0665,0.0666,0.0666,0,0.1586,0.151,0.1478,0.1367,0.1305,0.1246,0.1202,0.1141,0.1096,0.1018,0.0945,0.0889,0.0799,0.0732,0.0699,0.0685,0.0617,0.0623,0.0627,0.062,0.0583,0.0584,0.0585,0.0573,0.0573,0.0573,0,0,0.1567,0.1508,0.1401,0.1352,0.1318,0.1228,0.1187,0.1138,0.1059,0.1028,0.0954,0.0878,0.081,0.0766,0.0697,0.0636,0.061,0.0615,0.0619,0.0623,0.0619,0.0583,0.0584,0.0573,0.0573,0.0573,0,0,0.1556,0.143,0.1399,0.1332,0.1261,0.115,0.1123,0.1082,0.1011,0.1007,0.0919,0.0894,0.083,0.0776,0.0788,0.0687,0.0665,0.066,0.0724,0.0728,0.0732,0.0746,0.0729,0,0,0,0,0,0.1476,0.1446,0.1419,0.1395,0.1252,0.1166,0.1146,0.1074,0.1061,0.1041,0.0973,0.0928,0.0765,0.0773,0.075,0.0737,0.0575,0.0574,0.0574,0.0641,0.0646,0.0651,0,0,0,0,0,0,0.1466,0.1437,0.142,0.1309,0.1276,0.1166,0.1128,0.1107,0.1061,0.1054,0.0943,0.0925,0.086,0.078,0.076,0.0749,0.0735,0.0575,0.0574,0.0574,0.0643,0.0647,0.0651,0,0,0,0,0,0.1458,0.1435,0.1223,0.1309,0.128,0.1176,0.1128,0.111,0.1073,0.0966,0.0946,0.1022,0.0862,0.084,0.0768,0.076,0.0748,0.0741,0.0575,0.0574,0.0574,0.0645,0,0,0,0,0,0,0.1452,0.1417,0.1216,0.1204,0.1314,0.1181,0.1157,0.1114,0.0987,0.0967,0.1041,0.1037,0.0863,0.0846,0.0829,0.0768,0.0759,0.0752,0.0747,0.0574,0.0574,0.0574,0,0,0,0,0,0,0.1429,0.1408,0.121,0.1221,0.121,0.1186,0.1165,0.1092,0.0986,0.1068,0.1061,0.104,0.0886,0.0849,0.0836,0.0725,0.0767,0.076,0.0755,0.0752,0.0574,0.0574,0,0,0,0,0,0,0.1419,0.1401,0.1223,0.1215,0.1205,0.1071,0.1119,0.0976,0.0998,0.1075,0.0997,0.0997,0.0891,0.0877,0.0842,0.0737,0.0728,0.0767,0.0762,0.0759,0.0757,0,0,0,0,0,0,0,0.1411,0.155,0.1285,0.121,0.1202,0.1098,0.1095,0.1092,0.0998,0.0997,0.0997,0.0997,0.0806,0.0798,0.0791,0.0746,0,0,0.0767,0.0764,0,0,0,0,0,0,0,0,0.1556,0.1552,0.1284,0.1282,0.1279,0.1098,0.1095,0.1093,0.0998,0.0997,0.0997,0.0997,0.0804,0.0798,0.0792,0,0,0,0,0,0,0,0,0,0,0,0,0,0,0,0.1284,0.1282,0,0.1097,0.1095,0.1093,0.0998,0.0997,0.0997,0.0997,0.0802,0.0797,0.0792,0,0,0,0,0,0,0,0,0,0,0,0,0,0,0,0,0,0,0,0,0,0,0,0,0,0,0,0,0,0,0,0,0,0,0,0,0,0,0,0,0,0,0,0,0,0,0,0,0,0,0,0,0,0,0,0,0,0,0,0,0,0,0,0,0,0,0,0,0]}]]]